Regional Weather Roundup
Issued by NWS

Home | Current Version | Previous Version | Graphics & Text | Print | Product List | Glossary On
Versions: 1 2 3 4 5 6 7 8 9 10 11 12 13 14 15 16 17 18 19 20 21 22 23 24 25 26 27 28 29 30 31 32 33 34 35 36 37 38 39 40 41 42 43 44 45 46 47 48 49 50
000
ASUS43 KBIS 302002
RWRND

NORTH DAKOTA REGIONAL WEATHER ROUNDUP
NATIONAL WEATHER SERVICE BISMARCK ND
300 PM CDT FRI SEP 30 2016

NOTE: "FAIR" INDICATES FEW OR NO CLOUDS BELOW 12,000 FEET WITH NO
SIGNIFICANT WEATHER AND/OR OBSTRUCTIONS TO VISIBILITY.


NDZ001>003-009>011-017-302100-
NORTHWEST NORTH DAKOTA

CITY           SKY/WX    TMP DP  RH WIND       PRES   REMARKS
WILLISTON      CLOUDY    63  50  62 S14       30.00F
MINOT          CLOUDY    63  51  65 E8        30.09S
MINOT AFB      MOSUNNY   63  49  59 S14       30.07F
$$

NDZ018>021-031>035-040>046-302100-
SOUTHWEST NORTH DAKOTA

CITY           SKY/WX    TMP DP  RH WIND       PRES   REMARKS
BISMARCK       LGT RAIN  71  47  42 SE23      30.09F
DICKINSON      CLOUDY    65  45  48 SE17      30.02F
GARRISON         N/A     63  51  65 VRB5      30.07F
HETTINGER ARPT PTSUNNY   64  44  48 SE15G22   30.05F
$$

NDZ004>008-012>016-024-026-027-054-302100-
NORTHEAST NORTH DAKOTA

CITY           SKY/WX    TMP DP  RH WIND       PRES   REMARKS
GRAND FORKS    PTSUNNY   69  50  50 SE15G24   30.22F
GRND FRKS AFB  MOSUNNY   67  50  54 S14       30.21F
DEVILS LAKE    CLOUDY    64  50  60 S16G23    30.17F
$$

NDZ022-023-025-028>030-036>039-047>053-302100-
SOUTHEAST NORTH DAKOTA

CITY           SKY/WX    TMP DP  RH WIND       PRES   REMARKS
FARGO          MOSUNNY   70  48  45 S9        30.22F
JAMESTOWN      MOSUNNY   69  48  47 S18G25    30.16F
$$





USA.gov is the U.S. government's official web portal to all federal, state and local government web resources and services.